Time,TemperatureF,DewpointF,PressureIn,WindDirection,WindDirectionDegrees,WindSpeedMPH,WindSpeedGustMPH,Humidity,HourlyPrecipIn,Conditions,Clouds,dailyrainin,SoftwareType,DateUTC
2013-06-07 00:03:00,67.0,61.0,-100.00,North,0,3.0,4.0,82,-99.99,,,-99.99,,2013-06-07 05:03:00,
2013-06-07 00:12:00,67.0,61.0,-100.00,North,0,3.0,4.0,82,-99.99,,,-99.99,,2013-06-07 05:12:00,
2013-06-07 00:22:00,67.0,61.0,-100.00,North,0,3.0,4.0,82,-99.99,,,-99.99,,2013-06-07 05:22:00,
2013-06-07 00:32:00,66.0,60.0,-100.00,NNW,345,4.0,6.0,81,-99.99,,,-99.99,,2013-06-07 05:32:00,
2013-06-07 00:42:00,66.0,60.0,-100.00,NNW,330,3.0,3.0,81,-99.99,,,-99.99,,2013-06-07 05:42:00,
2013-06-07 00:52:00,66.0,60.0,-100.00,NNW,330,3.0,3.0,81,-99.99,,,-99.99,,2013-06-07 05:52:00,
2013-06-07 01:02:00,66.0,60.0,-100.00,NNW,340,2.0,3.0,81,-99.99,,,-99.99,,2013-06-07 06:02:00,
2013-06-07 01:12:00,66.0,60.0,-100.00,NW,315,3.0,4.0,81,-99.99,,,-99.99,,2013-06-07 06:12:00,
2013-06-07 01:22:00,66.0,60.0,-100.00,NW,315,3.0,4.0,81,-99.99,,,-99.99,,2013-06-07 06:22:00,
2013-06-07 01:32:00,66.0,60.0,-100.00,NNW,335,4.0,6.0,82,-99.99,,,-99.99,,2013-06-07 06:32:00,
2013-06-07 01:42:00,66.0,60.0,-100.00,NNW,345,6.0,10.0,82,-99.99,,,-99.99,,2013-06-07 06:42:00,
2013-06-07 01:52:00,66.0,60.0,-100.00,NNW,345,6.0,10.0,82,-99.99,,,-99.99,,2013-06-07 06:52:00,
2013-06-07 02:02:00,66.0,60.0,-100.00,NW,315,6.0,8.0,83,-99.99,,,-99.99,,2013-06-07 07:02:00,
2013-06-07 02:12:00,65.0,60.0,-100.00,NW,325,4.0,8.0,85,-99.99,,,-99.99,,2013-06-07 07:12:00,
2013-06-07 02:22:00,65.0,60.0,-100.00,NW,325,4.0,8.0,85,-99.99,,,-99.99,,2013-06-07 07:22:00,
2013-06-07 02:32:00,65.0,61.0,-100.00,NW,310,4.0,6.0,87,-99.99,,,-99.99,,2013-06-07 07:32:00,
2013-06-07 02:42:00,64.0,61.0,-100.00,NNW,345,4.0,6.0,89,-99.99,,,-99.99,,2013-06-07 07:42:00,
2013-06-07 02:52:00,64.0,61.0,-100.00,NNW,345,4.0,6.0,89,-99.99,,,-99.99,,2013-06-07 07:52:00,
2013-06-07 03:02:00,64.0,61.0,-100.00,NW,325,4.0,6.0,90,-99.99,,,-99.99,,2013-06-07 08:02:00,
2013-06-07 03:12:00,63.0,60.0,-100.00,NW,320,4.0,8.0,90,-99.99,,,-99.99,,2013-06-07 08:12:00,
2013-06-07 03:22:00,63.0,60.0,-100.00,NW,320,4.0,8.0,90,-99.99,,,-99.99,,2013-06-07 08:22:00,
2013-06-07 03:32:00,63.0,60.0,-100.00,WNW,285,2.0,3.0,90,-99.99,,,-99.99,,2013-06-07 08:32:00,
2013-06-07 03:42:00,63.0,60.0,-100.00,NW,310,4.0,6.0,90,-99.99,,,-99.99,,2013-06-07 08:42:00,
2013-06-07 03:52:00,63.0,60.0,-100.00,NW,310,4.0,6.0,90,-99.99,,,-99.99,,2013-06-07 08:52:00,
2013-06-07 04:02:00,62.0,59.0,-100.00,NNW,330,4.0,6.0,90,-99.99,,,-99.99,,2013-06-07 09:02:00,
2013-06-07 04:12:00,62.0,59.0,-100.00,West,275,3.0,6.0,91,-99.99,,,-99.99,,2013-06-07 09:12:00,
2013-06-07 04:22:00,62.0,59.0,-100.00,West,275,3.0,6.0,91,-99.99,,,-99.99,,2013-06-07 09:22:00,
2013-06-07 04:32:00,62.0,60.0,-100.00,NNW,335,2.0,3.0,92,-99.99,,,-99.99,,2013-06-07 09:32:00,
2013-06-07 04:43:00,62.0,60.0,-100.00,WNW,300,4.0,8.0,92,-99.99,,,-99.99,,2013-06-07 09:43:00,
2013-06-07 04:53:00,62.0,60.0,-100.00,WNW,300,4.0,8.0,92,-99.99,,,-99.99,,2013-06-07 09:53:00,
2013-06-07 05:02:00,62.0,60.0,-100.00,NNW,340,4.0,6.0,92,-99.99,,,-99.99,,2013-06-07 10:02:00,
2013-06-07 05:12:00,62.0,60.0,-100.00,NNW,340,3.0,4.0,92,-99.99,,,-99.99,,2013-06-07 10:12:00,
2013-06-07 05:23:00,62.0,60.0,-100.00,NNW,340,3.0,4.0,92,-99.99,,,-99.99,,2013-06-07 10:23:00,
2013-06-07 05:33:00,62.0,60.0,-100.00,North,0,3.0,4.0,92,-99.99,,,-99.99,,2013-06-07 10:33:00,
2013-06-07 05:42:00,61.0,59.0,-100.00,North,10,2.0,4.0,92,-99.99,,,-99.99,,2013-06-07 10:42:00,
2013-06-07 05:53:00,61.0,59.0,-100.00,North,10,2.0,4.0,92,-99.99,,,-99.99,,2013-06-07 10:53:00,
2013-06-07 06:02:00,61.0,59.0,-100.00,NNW,345,4.0,6.0,92,-99.99,,,-99.99,,2013-06-07 11:02:00,
2013-06-07 06:12:00,61.0,58.0,-100.00,North,350,4.0,4.0,91,-99.99,,,-99.99,,2013-06-07 11:12:00,
2013-06-07 06:22:00,61.0,58.0,-100.00,North,350,4.0,4.0,91,-99.99,,,-99.99,,2013-06-07 11:22:00,
2013-06-07 06:32:00,61.0,57.0,-100.00,NNW,335,3.0,4.0,88,-99.99,,,-99.99,,2013-06-07 11:32:00,
2013-06-07 06:42:00,61.0,56.0,-100.00,NNW,340,4.0,6.0,85,-99.99,,,-99.99,,2013-06-07 11:42:00,
2013-06-07 06:52:00,61.0,56.0,-100.00,NNW,340,4.0,6.0,85,-99.99,,,-99.99,,2013-06-07 11:52:00,
2013-06-07 07:02:00,61.0,56.0,-100.00,NW,315,6.0,10.0,83,-99.99,,,-99.99,,2013-06-07 12:02:00,
2013-06-07 07:12:00,61.0,55.0,-100.00,NNW,330,4.0,8.0,82,-99.99,,,-99.99,,2013-06-07 12:12:00,
2013-06-07 07:22:00,61.0,55.0,-100.00,NNW,330,4.0,8.0,82,-99.99,,,-99.99,,2013-06-07 12:22:00,
2013-06-07 07:32:00,61.0,55.0,-100.00,NW,310,3.0,4.0,81,-99.99,,,-99.99,,2013-06-07 12:32:00,
2013-06-07 07:42:00,61.0,55.0,-100.00,North,0,4.0,6.0,81,-99.99,,,-99.99,,2013-06-07 12:42:00,
2013-06-07 07:52:00,61.0,55.0,-100.00,North,0,4.0,6.0,81,-99.99,,,-99.99,,2013-06-07 12:52:00,
2013-06-07 08:02:00,61.0,55.0,-100.00,NNW,340,10.0,14.0,80,-99.99,,,-99.99,,2013-06-07 13:02:00,
2013-06-07 08:12:00,61.0,55.0,-100.00,NNW,340,10.0,14.0,80,-99.99,,,-99.99,,2013-06-07 13:12:00,
2013-06-07 08:22:00,61.0,55.0,-100.00,NNW,340,10.0,14.0,80,-99.99,,,-99.99,,2013-06-07 13:22:00,
2013-06-07 08:32:00,62.0,55.0,-100.00,North,0,6.0,8.0,77,-99.99,,,-99.99,,2013-06-07 13:32:00,
2013-06-07 08:43:00,63.0,55.0,-100.00,NW,325,4.0,6.0,76,-99.99,,,-99.99,,2013-06-07 13:43:00,
2013-06-07 08:52:00,63.0,55.0,-100.00,NW,325,4.0,6.0,76,-99.99,,,-99.99,,2013-06-07 13:52:00,
2013-06-07 09:02:00,64.0,55.0,-100.00,NNW,330,6.0,10.0,72,-99.99,,,-99.99,,2013-06-07 14:02:00,
2013-06-07 09:12:00,64.0,54.0,-100.00,NNW,340,8.0,10.0,71,-99.99,,,-99.99,,2013-06-07 14:12:00,
2013-06-07 09:22:00,64.0,54.0,-100.00,NNW,340,8.0,10.0,71,-99.99,,,-99.99,,2013-06-07 14:22:00,
2013-06-07 09:32:00,64.0,54.0,-100.00,NNW,345,10.0,12.0,69,-99.99,,,-99.99,,2013-06-07 14:32:00,
2013-06-07 09:42:00,67.0,55.0,-100.00,WNW,290,4.0,6.0,67,-99.99,,,-99.99,,2013-06-07 14:42:00,
2013-06-07 09:52:00,67.0,55.0,-100.00,WNW,290,4.0,6.0,67,-99.99,,,-99.99,,2013-06-07 14:52:00,
2013-06-07 10:02:00,66.0,55.0,-100.00,NNW,330,4.0,6.0,66,-99.99,,,-99.99,,2013-06-07 15:02:00,
2013-06-07 10:12:00,67.0,55.0,-100.00,North,350,6.0,10.0,65,-99.99,,,-99.99,,2013-06-07 15:12:00,
2013-06-07 10:23:00,67.0,55.0,-100.00,North,350,6.0,10.0,65,-99.99,,,-99.99,,2013-06-07 15:23:00,
2013-06-07 10:33:00,67.0,55.0,-100.00,NW,315,6.0,10.0,65,-99.99,,,-99.99,,2013-06-07 15:33:00,
2013-06-07 10:43:00,67.0,55.0,-100.00,North,0,9.0,11.0,65,-99.99,,,-99.99,,2013-06-07 15:43:00,
2013-06-07 10:53:00,67.0,55.0,-100.00,North,0,9.0,11.0,65,-99.99,,,-99.99,,2013-06-07 15:53:00,
2013-06-07 11:03:00,68.0,55.0,-100.00,North,350,10.0,12.0,63,-99.99,,,-99.99,,2013-06-07 16:03:00,
2013-06-07 11:13:00,69.0,55.0,-100.00,NNW,340,10.0,14.0,61,-99.99,,,-99.99,,2013-06-07 16:13:00,
2013-06-07 11:22:00,69.0,55.0,-100.00,NNW,340,10.0,14.0,61,-99.99,,,-99.99,,2013-06-07 16:22:00,
2013-06-07 11:33:00,70.0,55.0,-100.00,WNW,295,9.0,14.0,59,-99.99,,,-99.99,,2013-06-07 16:33:00,
2013-06-07 11:43:00,70.0,55.0,-100.00,North,0,9.0,12.0,58,-99.99,,,-99.99,,2013-06-07 16:43:00,
2013-06-07 11:53:00,70.0,55.0,-100.00,North,0,9.0,12.0,58,-99.99,,,-99.99,,2013-06-07 16:53:00,
2013-06-07 12:12:00,71.0,54.0,-100.00,NNW,345,6.0,10.0,55,-99.99,,,-99.99,,2013-06-07 17:12:00,
2013-06-07 12:23:00,71.0,54.0,-100.00,NNW,345,6.0,10.0,55,-99.99,,,-99.99,,2013-06-07 17:23:00,
2013-06-07 12:32:00,71.0,53.0,-100.00,North,0,9.0,10.0,53,-99.99,,,-99.99,,2013-06-07 17:32:00,
2013-06-07 12:42:00,73.0,53.0,-100.00,NNW,345,10.0,14.0,51,-99.99,,,-99.99,,2013-06-07 17:42:00,
2013-06-07 12:52:00,73.0,53.0,-100.00,NNW,345,10.0,14.0,51,-99.99,,,-99.99,,2013-06-07 17:52:00,
2013-06-07 13:06:00,72.0,53.0,-100.00,North,350,12.0,14.0,51,-99.99,,,-99.99,,2013-06-07 18:06:00,
2013-06-07 13:24:00,72.0,53.0,-100.00,North,350,12.0,14.0,51,-99.99,,,-99.99,,2013-06-07 18:24:00,
2013-06-07 13:35:00,73.0,54.0,-100.00,North,0,3.0,6.0,51,-99.99,,,-99.99,,2013-06-07 18:35:00,
2013-06-07 13:45:00,73.0,54.0,-100.00,North,355,6.0,10.0,50,-99.99,,,-99.99,,2013-06-07 18:45:00,
2013-06-07 13:59:00,73.0,54.0,-100.00,North,355,6.0,10.0,50,-99.99,,,-99.99,,2013-06-07 18:59:00,
2013-06-07 14:07:00,74.0,54.0,-100.00,NNW,345,6.0,10.0,50,-99.99,,,-99.99,,2013-06-07 19:07:00,
2013-06-07 14:28:00,74.0,54.0,-100.00,NW,315,8.0,10.0,50,-99.99,,,-99.99,,2013-06-07 19:28:00,
2013-06-07 14:36:00,75.0,55.0,-100.00,NNW,345,6.0,10.0,49,-99.99,,,-99.99,,2013-06-07 19:36:00,
2013-06-07 14:59:00,74.0,54.0,-100.00,NNW,340,9.0,14.0,50,-99.99,,,-99.99,,2013-06-07 19:59:00,
2013-06-07 15:07:00,75.0,55.0,-100.00,North,0,4.0,9.0,49,-99.99,,,-99.99,,2013-06-07 20:07:00,
2013-06-07 15:16:00,76.0,55.0,-100.00,North,0,4.0,8.0,48,-99.99,,,-99.99,,2013-06-07 20:16:00,
2013-06-07 15:25:00,76.0,55.0,-100.00,North,0,4.0,8.0,48,-99.99,,,-99.99,,2013-06-07 20:25:00,
2013-06-07 15:38:00,75.0,54.0,-100.00,NNW,330,4.0,6.0,48,-99.99,,,-99.99,,2013-06-07 20:38:00,
2013-06-07 15:46:00,76.0,55.0,-100.00,North,0,6.0,9.0,47,-99.99,,,-99.99,,2013-06-07 20:46:00,
2013-06-07 15:58:00,76.0,55.0,-100.00,North,0,6.0,9.0,47,-99.99,,,-99.99,,2013-06-07 20:58:00,
2013-06-07 16:05:00,76.0,55.0,-100.00,NNW,330,8.0,11.0,48,-99.99,,,-99.99,,2013-06-07 21:05:00,
2013-06-07 16:18:00,76.0,54.0,-100.00,NNW,345,10.0,12.0,46,-99.99,,,-99.99,,2013-06-07 21:18:00,
2013-06-07 16:38:00,78.0,55.0,-100.00,North,0,3.0,6.0,46,-99.99,,,-99.99,,2013-06-07 21:38:00,
2013-06-07 16:45:00,78.0,54.0,-100.00,North,0,6.0,10.0,44,-99.99,,,-99.99,,2013-06-07 21:45:00,
2013-06-07 17:07:00,76.0,54.0,-100.00,WNW,290,8.0,10.0,46,-99.99,,,-99.99,,2013-06-07 22:07:00,
2013-06-07 17:21:00,75.0,54.0,-100.00,NNW,335,6.0,8.0,48,-99.99,,,-99.99,,2013-06-07 22:21:00,
2013-06-07 17:28:00,75.0,54.0,-100.00,NNW,335,6.0,8.0,48,-99.99,,,-99.99,,2013-06-07 22:28:00,
2013-06-07 18:07:00,74.0,54.0,-100.00,WNW,290,3.0,6.0,49,-99.99,,,-99.99,,2013-06-07 23:07:00,
2013-06-07 18:18:00,74.0,53.0,-100.00,NW,325,4.0,6.0,48,-99.99,,,-99.99,,2013-06-07 23:18:00,
2013-06-07 18:29:00,74.0,53.0,-100.00,NW,325,4.0,6.0,48,-99.99,,,-99.99,,2013-06-07 23:29:00,
2013-06-07 18:36:00,74.0,53.0,-100.00,NNW,345,6.0,10.0,48,-99.99,,,-99.99,,2013-06-07 23:36:00,
2013-06-07 18:49:00,74.0,53.0,-100.00,WNW,285,3.0,6.0,48,-99.99,,,-99.99,,2013-06-07 23:49:00,
2013-06-07 19:03:00,74.0,53.0,-100.00,WNW,285,3.0,6.0,48,-99.99,,,-99.99,,2013-06-08 00:03:00,
2013-06-07 19:27:00,73.0,54.0,-100.00,NNW,340,3.0,4.0,51,-99.99,,,-99.99,,2013-06-08 00:27:00,
2013-06-07 19:34:00,73.0,53.0,-100.00,North,0,4.0,8.0,50,-99.99,,,-99.99,,2013-06-08 00:34:00,
2013-06-07 20:00:00,72.0,53.0,-100.00,NW,320,4.0,6.0,51,-99.99,,,-99.99,,2013-06-08 01:00:00,
2013-06-07 20:07:00,72.0,53.0,-100.00,NNW,335,3.0,6.0,52,-99.99,,,-99.99,,2013-06-08 01:07:00,
2013-06-07 20:18:00,71.0,53.0,-100.00,NNW,330,3.0,6.0,53,-99.99,,,-99.99,,2013-06-08 01:18:00,
2013-06-07 20:27:00,71.0,53.0,-100.00,NNW,330,3.0,6.0,53,-99.99,,,-99.99,,2013-06-08 01:27:00,
2013-06-07 20:38:00,71.0,53.0,-100.00,NW,320,2.0,3.0,54,-99.99,,,-99.99,,2013-06-08 01:38:00,
2013-06-07 20:44:00,70.0,53.0,-100.00,NW,325,3.0,3.0,55,-99.99,,,-99.99,,2013-06-08 01:44:00,
2013-06-07 21:08:00,70.0,54.0,-100.00,NW,315,3.0,3.0,57,-99.99,,,-99.99,,2013-06-08 02:08:00,
2013-06-07 21:15:00,69.0,54.0,-100.00,NW,325,2.0,3.0,59,-99.99,,,-99.99,,2013-06-08 02:15:00,
2013-06-07 21:29:00,69.0,54.0,-100.00,NW,325,2.0,3.0,59,-99.99,,,-99.99,,2013-06-08 02:29:00,
2013-06-07 21:34:00,68.0,54.0,-100.00,WNW,300,1.0,1.0,61,-99.99,,,-99.99,,2013-06-08 02:34:00,
2013-06-07 21:47:00,68.0,55.0,-100.00,NW,325,1.0,2.0,63,-99.99,,,-99.99,,2013-06-08 02:47:00,
2013-06-07 21:59:00,68.0,55.0,-100.00,NW,325,1.0,2.0,63,-99.99,,,-99.99,,2013-06-08 02:59:00,
2013-06-07 22:08:00,67.0,56.0,-100.00,SW,225,0.0,0.0,67,-99.99,,,-99.99,,2013-06-08 03:08:00,
2013-06-07 22:16:00,64.0,57.0,-100.00,South,180,0.0,0.0,77,-99.99,,,-99.99,,2013-06-08 03:16:00,
2013-06-07 22:27:00,64.0,57.0,-100.00,South,180,0.0,0.0,77,-99.99,,,-99.99,,2013-06-08 03:27:00,
2013-06-07 22:36:00,64.0,58.0,-100.00,South,170,0.0,1.0,83,-99.99,,,-99.99,,2013-06-08 03:36:00,
2013-06-07 22:50:00,63.0,58.0,-100.00,NNW,330,1.0,2.0,83,-99.99,,,-99.99,,2013-06-08 03:50:00,
2013-06-07 23:00:00,63.0,58.0,-100.00,NNW,330,1.0,2.0,83,-99.99,,,-99.99,,2013-06-08 04:00:00,
2013-06-07 23:03:00,64.0,58.0,-100.00,WSW,240,0.0,0.0,83,-99.99,,,-99.99,,2013-06-08 04:03:00,
2013-06-07 23:12:00,63.0,58.0,-100.00,NW,325,2.0,3.0,82,-99.99,,,-99.99,,2013-06-08 04:12:00,
2013-06-07 23:23:00,63.0,58.0,-100.00,NW,325,2.0,3.0,82,-99.99,,,-99.99,,2013-06-08 04:23:00,
2013-06-07 23:33:00,63.0,57.0,-100.00,NW,305,3.0,4.0,81,-99.99,,,-99.99,,2013-06-08 04:33:00,
2013-06-07 23:42:00,63.0,57.0,-100.00,NNW,335,2.0,3.0,81,-99.99,,,-99.99,,2013-06-08 04:42:00,
2013-06-07 23:53:00,63.0,57.0,-100.00,NNW,335,2.0,3.0,81,-99.99,,,-99.99,,2013-06-08 04:53:00,